Terminal Aerodrome Forecast
Issued by NWS Austin/San Antonio, TX

Home | Current Version | Previous Version | Text Only | Print | Product List | Glossary On
Versions: 1 2 3 4 5 6 7 8 9 10 11 12 13 14 15 16 17 18
903
FTUS44 KEWX 211320 AAA
TAFAUS
TAF AMD
KAUS 211320Z 2113/2218 19004KT P6SM SCT025 BKN250
     FM211500 21010KT P6SM SCT040 BKN200
     FM212300 35012KT P6SM BKN040
     FM220300 36014G24KT P6SM BKN035=

USA.gov is the U.S. government's official web portal to all federal, state and local government web resources and services.